User: anonymous   Login
Location: Arbon
(43.0005°N, 0.7472°E)
Time: 15:57:53
(UTC+00:00)
Language:

Explorer 7 - Orbit

View from above orbital plane
View from above orbital plane
View from above satellite
View from above satellite

Ground track
Ground track

The orbit data is extracted from the following two-line orbital elements,

1    22U 59009A   21132.16302556  .00000335  00000-0  47944-4 0  9997
2    22  50.2848 359.3385 0138625  74.9241 286.6997 14.95541010274517
Epoch (UTC): 12 May 2021 03:54:45
Eccentricity: 0.0138625
inclination: 50.2848°
perigee height: 484 km
apogee height: 677 km
right ascension of ascending node: 359.3385°
argument of perigee: 74.9241°
revolutions per day: 14.95541010
mean anomaly at epoch: 286.6997°
orbit number at epoch: 27451

The dashed part of the orbit path shows where the satellite is in the earth's shadow,  

DLR